Location: Buggenhofen
(48.7204°N, 10.6389°E)
Time: 09:37:21
(UTC+00:00)

Daily predictions for brighter satellites

Satellite Brightness Start Highest point End
(mag) Time Altitude Azimuth Time Altitude Azimuth Time Altitude Azimuth
Meteor 2-4 Rocket 3.6 19:42:37 10° S 19:47:58 81° E 19:53:21 10° NNE
NOSS 3-1 (A) 4.5 19:43:44 10° WSW 19:49:16 52° NW 19:55:49 10° NE
NOSS 2-2 (E) 4.4 19:46:53 10° SSE 19:49:38 21° ESE 19:52:35 10° ENE
STARLINK-1125 4.2 19:46:04 10° WNW 19:50:04 47° SW 19:54:02 10° SE
EXPRESS MD2 4.0 19:47:51 10° SSW 19:50:30 29° SE 19:54:54 10° ENE
STARLINK-1254 4.5 19:47:16 10° W 19:51:20 53° NNW 19:55:25 10° ENE
STARLINK-1098 3.9 19:48:16 10° WNW 19:52:25 70° NNE 19:56:33 10° ESE
Cosmos 1833 Rocket 3.4 19:47:18 10° NW 19:52:46 53° WSW 19:58:11 10° S
Cosmos 2297 4.3 19:49:25 10° S 19:54:34 37° ESE 19:59:47 10° NE
STARLINK-1109 4.3 19:51:04 10° WNW 19:55:01 44° SW 19:58:57 10° SE
Cosmos 1943 Rocket 3.6 19:51:45 10° SE 19:55:17 17° E 19:58:51 10° ENE
STARLINK-1123 3.8 19:53:14 10° WNW 19:57:23 74° NNE 20:01:32 10° ESE
STARLINK-1246 3.6 19:54:20 10° WSW 19:58:28 82° SSE 20:02:38 10° ENE
Cosmos 2082 Rocket 2.4 19:53:46 10° NNW 19:59:30 74° WSW 20:05:10 10° SSE
STARLINK-1091 4.4 19:56:03 10° WNW 19:59:57 41° SW 20:03:50 10° SSE
IGS 5A 3.9 19:56:04 10° SSE 20:00:05 50° ENE 20:04:07 10° N
Cosmos 1420 Rocket 4.2 19:55:43 10° SSW 20:00:55 77° WNW 20:06:09 10° NNE
Cosmos 1452 Rocket 3.5 19:55:55 10° SSW 20:01:11 78° ESE 20:06:30 10° NNE
Cosmos 332 Rocket 3.9 19:56:38 10° S 20:01:28 62° ESE 20:06:19 10° NNE
BREEZE-M DEB 3.9 19:59:50 10° S 20:01:34 17° SE 20:04:11 10° E
Intercosmos 24 3.7 19:58:44 10° N 20:02:19 89° WNW 20:06:08 10° S
STARLINK-1097 3.8 19:58:14 10° WNW 20:02:23 77° NNE 20:06:33 10° ESE
Landsat 7 4.1 19:58:25 10° SSE 20:03:05 58° ENE 20:07:46 10° N
STARLINK-1224 3.6 19:59:17 10° WSW 20:03:26 87° SSE 20:07:36 10° ENE
STARLINK-1099 3.7 20:03:12 10° WNW 20:07:23 81° NNE 20:11:32 10° ESE
Cosmos 1461 3.0 20:03:45 10° SSW 20:07:47 53° ESE 20:12:03 10° NE
STARLINK-1225 3.6 20:04:17 10° WSW 20:08:26 89° NNW 20:12:36 10° ENE
Okean 3 4.0 20:05:42 10° SSW 20:09:58 64° W 20:14:16 10° N
SAR-Lupe-2 4.0 20:07:23 10° NNE 20:10:52 44° E 20:14:19 10° S
Cosmos 2369 Rocket 3.7 20:07:38 10° SE 20:11:12 17° E 20:14:45 10° ENE
STARLINK-1104 3.7 20:08:11 10° WNW 20:12:21 85° NNE 20:16:30 10° ESE
STARLINK-1230 3.7 20:09:15 10° WSW 20:13:24 85° NNW 20:17:34 10° ENE
STARLINK-1212 4.4 20:10:37 10° WNW 20:13:32 35° N 20:16:27 10° ENE
STARLINK-1105 4.4 20:11:06 10° WNW 20:14:00 35° N 20:16:54 10° ENE
NOSS 2-2 (C) 4.0 20:11:00 10° S 20:14:06 28° ESE 20:17:27 10° ENE
STARLINK-1247 4.4 20:11:58 10° WNW 20:14:54 36° N 20:17:49 10° ENE
STARLINK-1227 4.4 20:12:28 10° WNW 20:15:23 35° N 20:18:17 10° ENE
STARLINK-1226 4.4 20:13:19 10° WNW 20:16:15 36° N 20:19:10 10° ENE
SL-4 R/B 3.8 20:15:18 10° WNW 20:17:09 15° WSW 20:18:54 10° SSW
STARLINK-1215 4.4 20:14:13 10° WNW 20:17:09 36° N 20:20:05 10° ENE
STARLINK-1144 3.6 20:13:10 10° WNW 20:17:21 89° NE 20:21:27 10° ESE
Cosmos 2221 Rocket 4.3 20:13:24 10° SSW 20:17:52 59° WNW 20:22:24 10° N
ATLAS 2AS CENTAUR R/B 4.4 20:13:24 10° SE 20:18:14 18° ESE 20:23:06 10° ENE
STARLINK-1243 3.7 20:14:15 10° WSW 20:18:24 81° NNW 20:22:34 10° ENE
STARLINK-1217 4.4 20:16:03 10° WNW 20:18:58 36° N 20:21:54 10° ENE
SPOT 5 3.6 20:14:18 10° SE 20:19:13 47° ENE 20:24:21 10° N
NOSS 3-2 (A) 4.3 20:12:16 10° NW 20:19:32 64° NE 20:27:46 10° ESE
STARLINK-1229 4.4 20:16:58 10° WNW 20:19:54 36° N 20:22:49 10° ENE
STARLINK-1270 4.4 20:17:51 10° WNW 20:20:48 36° N 20:23:43 10° ENE
NOSS 8 (F) 4.1 20:18:10 10° SW 20:21:22 88° ESE 20:24:25 10° NE
Meteor 1-13 Rocket 4.4 20:15:52 10° SSW 20:21:31 83° WNW 20:27:19 10° N
STARLINK-1103 3.6 20:18:08 10° WNW 20:22:18 86° SSW 20:26:13 11° ESE
STARLINK-1189 4.4 20:19:39 10° WNW 20:22:35 36° N 20:25:32 10° ENE
STARLINK-1236 3.8 20:19:13 10° WSW 20:23:22 77° NNW 20:27:32 10° ENE
STARLINK-1188 4.4 20:20:34 10° WNW 20:23:30 36° N 20:26:27 10° ENE
ERS-1 Rocket 3.2 20:19:40 11° SSE 20:24:23 57° ENE 20:29:20 10° N
STARLINK-1187 4.3 20:21:40 10° WNW 20:24:35 37° N 20:27:31 10° ENE
STARLINK-1191 4.3 20:23:01 10° WNW 20:25:57 36° N 20:28:52 10° ENE
STARLINK-1221 4.3 20:23:59 10° WNW 20:26:54 36° N 20:29:49 10° ENE
STARLINK-1101 3.6 20:23:07 10° WNW 20:27:17 82° SSW 20:31:00 13° ESE
STARLINK-1222 4.3 20:24:50 10° WNW 20:27:45 36° N 20:30:41 10° ENE
STARLINK-1214 4.3 20:25:43 10° WNW 20:28:40 37° N 20:31:35 10° ENE
Cosmos 1066 Rocket 4.2 20:23:51 10° S 20:29:09 64° E 20:34:27 10° NNE
USA 245 2.8 20:27:56 10° S 20:30:49 58° WSW 20:33:19 10° NNW
USA 238 DEB 4.1 20:24:19 10° NW 20:31:29 69° NE 20:38:25 12° SE
USA 238 4.1 20:24:25 10° NW 20:31:35 69° NE 20:38:32 12° SE
STARLINK-1102 3.6 20:28:07 10° WNW 20:32:16 77° SSW 20:35:48 14° ESE
STARLINK-1228 4.2 20:29:47 10° WNW 20:33:10 44° N 20:36:33 10° E
STARLINK-1269 3.9 20:29:13 10° WSW 20:33:21 70° NNW 20:37:30 10° ENE
Okean 1 Rocket 3.1 20:29:23 10° N 20:33:52 82° ENE 20:37:54 12° SSE
Cosmos 1805 3.6 20:30:18 10° N 20:34:08 50° ENE 20:37:07 16° SSE
Cosmos 2278 Rocket 3.7 20:28:58 10° WSW 20:34:19 41° NW 20:39:43 10° NNE
TSX-5 4.3 20:28:49 10° SSW 20:34:24 88° ESE 20:38:41 10° NNE
Resurs 01 Rocket 3.3 20:30:31 10° SSW 20:34:29 31° W 20:38:27 10° NNW
Nadezhda 4 Rocket 4.0 20:29:32 10° S 20:35:37 68° E 20:41:42 10° NNE
STARLINK-1235 4.2 20:33:26 10° WNW 20:36:32 41° N 20:39:39 10° E
STARLINK-1111 3.6 20:33:05 10° WNW 20:37:14 73° SSW 20:40:34 15° SE
STARLINK-1200 4.0 20:34:12 10° WSW 20:38:19 67° NNW 20:42:27 10° ENE
Cosmos 1455 Rocket 4.2 20:35:33 10° N 20:39:23 29° ENE 20:42:18 15° SE
STARLINK-1073 3.7 20:38:04 10° WNW 20:42:12 68° SSW 20:45:22 17° SE
SL-8 R/B 3.8 20:37:38 10° W 20:42:22 59° SSW 20:46:16 15° SE
STARLINK-1192 4.1 20:39:12 10° W 20:43:19 64° NNW 20:47:27 10° ENE
ATLAS 3B CENTAUR R/B 4.3 20:38:32 10° SW 20:47:02 20° SSW 20:50:57 14° SSE
STARLINK-1121 3.7 20:43:03 10° WNW 20:47:10 64° SSW 20:50:08 18° SE
SL-4 R/B 3.4 20:44:00 10° S 20:47:47 24° SE 20:51:38 10° E
Terra 2.1 20:44:22 16° SE 20:48:03 58° ENE 20:52:45 10° N
Cosmos 1110 Rocket 3.9 20:42:56 10° SSW 20:48:06 79° ESE 20:53:18 10° NNE
STARLINK-1244 4.2 20:44:12 10° W 20:48:19 62° NNW 20:52:26 10° ENE
Spot 2 Rocket 4.2 20:44:30 10° S 20:49:22 49° W 20:54:18 10° NNW
SPOT 1/Viking Rocket 3.8 20:45:17 11° S 20:50:12 67° WSW 20:55:21 10° NNW
Abrixas rocket 3.0 20:48:06 10° W 20:50:44 29° SSW 20:51:50 22° SSE
Cosmos 1842 4.2 20:48:52 18° SE 20:51:00 31° E 20:54:28 10° NNE
CARTOSAT-1 3.5 20:47:49 15° SSE 20:51:18 89° WSW 20:55:40 10° NNW
STARLINK-1106 3.8 20:48:04 10° WNW 20:52:10 60° SSW 20:54:56 19° SE
NOSS 8 (H) 4.3 20:49:25 10° SW 20:52:31 74° NW 20:55:37 10° NE
STARLINK-1138 4.2 20:49:12 10° W 20:53:19 60° NNW 20:57:25 10° ENE
STARLINK-1234 3.9 20:51:12 10° WNW 20:54:25 48° NNE 20:57:36 10° E
STARLINK-1112 3.8 20:53:02 10° WNW 20:57:06 56° SSW 20:59:42 21° SE
STARLINK-1143 4.3 20:54:11 10° W 20:58:17 58° NNW 21:02:23 10° ENE
STARLINK-1209 3.7 20:57:11 10° WNW 21:00:25 52° NNE 21:03:27 11° E
STARLINK-1128 3.9 20:58:01 10° WNW 21:02:03 52° SW 21:04:28 22° SSE
STARLINK-1241 4.4 20:59:14 10° W 21:03:19 56° NNW 21:07:24 10° ENE
SWAS 4.4 20:59:39 10° NNW 21:04:00 84° ENE 21:06:45 22° SSE
Cosmos 1331 Rocket 4.0 20:59:44 10° SSW 21:04:54 84° WNW 21:10:08 10° NNE
Aureole 2 Rocket 3.8 21:02:54 10° SW 21:05:45 34° WNW 21:08:30 10° N
STARLINK-1113 4.0 21:03:01 10° WNW 21:07:01 48° SW 21:09:15 23° SSE
Cosmos 1733 3.1 21:03:26 10° N 21:07:16 79° ENE 21:09:32 23° SSE
STARLINK-1239 4.4 21:04:14 10° W 21:08:18 54° NNW 21:12:23 10° ENE
COSMOS 2455 4.3 21:09:45 16° SE 21:11:31 19° ESE 21:15:30 10° ENE
STARLINK-1119 4.1 21:08:02 10° WNW 21:12:00 45° SW 21:14:04 24° SSE
Cosmos 1378 3.4 21:09:41 13° SSW 21:12:54 67° W 21:16:38 10° N
STARLINK-1240 4.5 21:09:13 10° W 21:13:17 53° NNW 21:17:21 10° ENE
Cosmos 1486 Rocket 4.2 21:09:27 10° NNW 21:14:45 66° ENE 21:18:13 22° SE
Cosmos 1302 Rocket 4.0 21:10:13 12° S 21:15:00 66° ESE 21:20:16 10° NNE
USA 215 4.0 21:09:04 10° E 21:15:23 53° NNE 21:21:41 10° WNW
Cosmos 1271 Rocket 4.0 21:14:22 22° SE 21:15:42 27° E 21:19:02 10° NNE
Cosmos 1544 Rocket 4.0 21:12:04 10° N 21:16:17 48° ENE 21:18:39 24° SE
Cosmos 1242 Rocket 3.3 21:15:26 26° SE 21:16:50 37° E 21:20:16 10° NNE
STARLINK-1114 4.2 21:13:01 10° WNW 21:16:56 42° SW 21:18:49 25° SSE
MTI 3.7 21:14:32 10° NNE 21:17:40 60° E 21:18:58 30° S
Lacrosse 5 4.1 21:17:06 10° W 21:18:56 12° WSW 21:20:45 10° SW
STARLINK-60 3.8 21:20:10 30° ESE 21:20:10 30° ESE 21:22:36 10° ENE
Cosmos 1092 Rocket 4.0 21:15:30 13° S 21:21:08 89° WNW 21:27:20 10° N
STARLINK-1130 (DARKSAT) 4.3 21:18:02 10° WNW 21:21:54 39° SW 21:23:37 26° S
NOSS 2-2 (D) 3.5 21:18:48 10° SW 21:22:22 68° NW 21:26:29 10° NE
CENTAUR R/B 3.3 21:16:08 10° NW 21:24:06 80° NE 21:31:08 18° SE
Cosmos 1707 3.9 21:24:35 23° ESE 21:25:48 28° E 21:29:09 10° NNE
STARLINK-1084 4.4 21:23:03 10° WNW 21:26:51 36° SW 21:28:24 26° S
ATLAS 3B R/B 3.4 21:20:43 10° NW 21:27:16 49° NE 21:33:57 10° ESE
SL-27 R/B 2.4 21:24:20 10° NNW 21:27:56 80° WSW 21:29:28 32° SSE
NOSS 3-2 (C) 4.1 21:21:51 10° NW 21:29:20 89° SW 21:35:37 20° SE
Cosmos 1766 4.1 21:26:24 10° NNW 21:30:13 44° W 21:32:47 19° SSW
Cosmos 1726 3.7 21:28:18 10° NNE 21:31:22 24° ENE 21:32:50 19° ESE
ALOS 2 4.4 21:30:24 13° ESE 21:33:00 22° ENE 21:36:22 10° NNE
Cosmos 1867 3.9 21:28:50 10° NW 21:34:16 60° NE 21:38:07 19° ESE
COSMOS 2487 4.1 21:32:33 10° N 21:35:28 24° ENE 21:37:03 18° E
Cosmos 1943 Rocket 2.2 21:32:44 10° SSW 21:38:18 82° WNW 21:43:57 10° NNE
Cosmos 1992 Rocket 4.5 21:36:08 26° SSE 21:38:37 43° ESE 21:43:32 10° NE
NOSS 3-4 (A) 3.8 21:36:32 22° S 21:39:50 41° ESE 21:45:40 10° NE
NOSS 3-4 (C) 3.9 21:36:40 22° S 21:39:57 40° ESE 21:45:46 10° NE
STARLINK-1232 4.5 21:37:20 10° WNW 21:41:23 50° N 21:45:27 10° E
Cosmos 1428 Rocket 4.5 21:36:33 18° S 21:41:26 89° E 21:47:45 10° N
SeaSat 1 3.1 21:38:18 10° NE 21:42:50 35° ESE 21:44:34 27° SSE
EO 1 Del DPAF 3.8 21:39:52 10° NNE 21:43:28 40° E 21:44:29 32° SE
STARLINK-1208 4.4 21:42:18 10° WNW 21:46:22 52° NNE 21:50:26 10° E
Cosmos 1975 Rocket 3.6 21:44:36 17° SSW 21:47:56 56° WNW 21:52:18 10° N
STARLINK-1212 2.9 21:46:32 10° WNW 21:49:38 76° NNE 21:50:47 35° ESE
STARLINK-1105 2.9 21:47:00 10° WNW 21:50:07 76° NNE 21:51:13 36° ESE
STARLINK-1247 2.9 21:47:52 10° WNW 21:51:00 77° NNE 21:52:06 36° ESE
Meteor 2-10 4.2 21:46:12 10° N 21:51:11 57° ENE 21:53:43 28° SE
STARLINK-1271 4.4 21:47:19 10° WNW 21:51:24 53° NNE 21:55:28 10° E
STARLINK-1227 2.9 21:48:21 10° WNW 21:51:29 78° NNE 21:52:32 37° ESE
Cosmos 292 Rocket 3.7 21:48:20 21° SSW 21:51:34 84° ESE 21:56:27 10° NNE
BREEZE-M DEB (TANK) 3.4 21:38:34 10° WSW 21:51:56 84° SSE 21:55:33 10° ENE
STARLINK-1226 2.9 21:49:13 10° WNW 21:52:21 78° NNE 21:53:23 38° ESE
BREEZE-M DEB (TANK) 2.9 21:48:53 10° W 21:52:43 85° N 21:56:41 10° E
STARLINK-1215 2.9 21:50:07 10° WNW 21:53:15 79° NNE 21:54:16 39° ESE
RESURS DK-1 4.5 21:53:57 13° E 21:53:57 13° E 21:55:45 10° ENE
Cosmos 2369 Rocket 2.2 21:49:04 11° SSW 21:54:29 84° WNW 22:00:10 10° NNE
S3M 4.1 21:48:24 10° N 21:54:34 69° ENE 21:58:11 26° SSE
STARLINK-1217 2.8 21:51:56 10° WNW 21:55:04 81° NNE 21:56:00 41° ESE
STARLINK-1229 2.8 21:52:50 10° WNW 21:55:59 82° NNE 21:56:54 42° ESE
STARLINK-1154 4.3 21:52:18 10° WNW 21:56:23 54° NNE 22:00:28 10° E
STARLINK-1270 2.8 21:53:44 10° WNW 21:56:52 83° NNE 21:57:45 44° ESE
Aureole 3 Rocket 4.4 21:52:05 10° NNW 21:58:15 79° W 22:03:53 23° S
STARLINK-1189 2.8 21:55:32 10° WNW 21:58:40 86° NNE 21:59:29 46° ESE
STARLINK-1188 2.8 21:56:26 10° WNW 21:59:35 87° NNE 22:00:22 47° ESE
ATLAS CENTAUR R/B 2.0 21:59:35 34° SE 22:00:20 37° ESE 22:04:11 10° NE
STARLINK-1187 2.7 21:57:32 10° WNW 22:00:39 85° SSW 22:01:14 55° SE
Cosmos 1340 Rocket 3.4 21:57:04 10° N 22:01:02 48° ENE 22:02:31 32° SE
STARLINK-1197 4.2 21:57:16 10° WNW 22:01:22 56° NNE 22:05:27 10° E
STARLINK-1191 2.7 21:58:53 10° WNW 22:02:00 89° N 22:02:39 53° ESE
Aureole 3 4.0 21:59:58 10° N 22:02:51 28° ENE 22:03:24 26° E
STARLINK-1221 2.7 21:59:50 10° WNW 22:02:57 89° WSW 22:03:34 54° ESE
STARLINK-1222 2.7 22:00:41 10° WNW 22:03:48 88° SW 22:04:23 55° ESE
Thor Agena Rocket 3.5 21:59:00 10° NNE 22:04:19 75° ESE 22:07:12 28° S
STARLINK-1214 2.7 22:01:34 10° WNW 22:04:42 87° SW 22:05:15 57° ESE
NOSS 7 (A) 4.4 22:04:00 48° SSW 22:04:43 80° SE 22:07:39 10° NE
Cosmos 1025 Rocket 2.9 22:02:58 34° S 22:04:45 79° E 22:09:04 10° NNE
Cosmos 2026 Rocket 4.5 22:00:23 14° SSW 22:05:42 59° WNW 22:12:01 10° N
EXPRESS MD2 4.3 22:01:57 10° W 22:06:02 82° N 22:14:47 10° E
STARLINK-1198 4.2 22:02:15 10° WNW 22:06:21 58° NNE 22:10:27 10° E
ATLAS 2AS CENTAUR R/B 3.0 22:00:30 12° SSW 22:07:59 69° SE 22:15:52 10° NE
Cosmos 1553 Rocket 4.1 22:01:47 10° NNW 22:08:03 74° W 22:11:43 26° S
Cosmos 1656 Rocket 3.6 22:04:50 25° S 22:08:06 68° ESE 22:13:39 10° NNE
BREEZE M DEB (TANK) 1.7 22:05:15 10° W 22:08:15 77° N 22:08:33 60° ENE
Cosmos 1953 2.3 22:05:23 10° N 22:09:23 70° E 22:10:41 40° SSE
BREEZE-M DEB (TANK) 4.1 21:57:37 10° WNW 22:09:55 59° SW 22:11:56 31° SSE
Cosmos 1470 3.3 22:06:40 10° NNW 22:10:26 49° W 22:11:51 32° SSW
STARLINK-1228 3.1 22:07:03 10° WNW 22:10:32 66° SSW 22:11:08 53° SSE
STARLINK-1199 4.1 22:07:15 10° WNW 22:11:22 60° NNE 22:15:21 11° E
APEX 4.3 22:06:47 13° SSW 22:12:41 83° WNW 22:17:58 10° NNE
STARLINK-1235 2.9 22:09:46 10° WNW 22:12:59 64° SSW 22:13:12 62° S
Cosmos 2292 Rocket 3.6 22:13:24 37° ESE 22:13:57 41° E 22:17:01 10° NNE
Cosmos 968 Rocket 3.9 22:10:13 10° NNW 22:15:12 52° WSW 22:17:31 29° SSW
STARLINK-1210 4.0 22:12:14 10° WNW 22:16:21 63° NNE 22:20:07 12° E
Cosmos 1455 Rocket 4.5 22:13:24 10° NNW 22:17:11 30° W 22:19:25 19° SW
Cosmos 1655 Rocket 4.0 22:15:01 27° S 22:18:39 84° E 22:24:57 10° N
SL-4 R/B 2.1 22:20:18 33° NNE 22:20:18 33° NNE 22:21:49 10° N
STARLINK-1219 4.0 22:17:12 10° WNW 22:21:20 65° NNE 22:24:53 14° E
ATLAS 5 CENTAUR R/B 1.3 22:21:46 41° SSW 22:22:41 63° SE 22:24:57 10° NE
Cosmos 1758 4.2 22:20:03 10° NNW 22:23:54 42° W 22:25:25 29° SW
STARLINK-52 4.0 22:26:28 31° E 22:26:28 31° E 22:28:27 10° ENE
Terra 3.8 22:23:15 12° SW 22:26:11 19° W 22:29:37 10° NW
STARLINK-1211 3.9 22:22:12 10° WNW 22:26:21 68° NNE 22:29:40 15° ESE
SL-4 R/B 2.3 22:22:14 10° WSW 22:27:02 77° SSE 22:31:53 10° ENE
Cosmos 2228 3.7 22:23:01 10° N 22:27:06 44° ENE 22:28:36 31° SE
Cosmos 1726 Rocket 4.5 22:23:48 10° N 22:27:51 37° ENE 22:29:31 27° ESE
Meteor 2-15 4.5 22:21:45 10° N 22:27:56 76° E 22:31:06 30° SSE
STARLINK-1234 3.6 22:27:35 10° WNW 22:30:16 41° WSW 22:30:16 41° WSW
STARLINK-1245 3.8 22:27:10 10° WNW 22:31:19 71° NNE 22:34:26 17° ESE
In-Cosmos 22 4.0 22:30:05 33° S 22:32:29 77° E 22:37:46 10° NNE
STARLINK-1233 3.7 22:32:08 10° WNW 22:36:17 74° NNE 22:39:12 19° ESE
STARLINK-1209 4.0 22:33:47 10° WNW 22:36:13 34° WSW 22:36:13 34° WSW
Cosmos 2266 Rocket 3.9 22:33:43 30° S 22:36:55 85° E 22:43:00 10° N
STARLINK-1204 3.7 22:37:07 10° WNW 22:41:17 78° NNE 22:43:59 21° ESE
SJ 16-02 3.7 22:40:14 10° N 22:43:15 18° NE 22:46:15 10° E
STARLINK-1238 3.6 22:42:07 10° WNW 22:46:17 82° NNE 22:48:47 23° ESE
Cosmos 1536 Rocket 4.4 22:45:44 25° SW 22:47:49 44° WNW 22:52:01 10° N
Meteor 2-15 Rocket 4.4 22:41:40 10° N 22:47:52 86° E 22:50:55 32° SSE
Cosmos 1674 2.6 22:48:20 53° SSE 22:49:03 71° E 22:52:50 10° NNE
Helios 1B rocket 4.2 22:46:19 10° NE 22:49:17 19° E 22:50:09 18° ESE
STARLINK-1201 3.6 22:47:06 10° WNW 22:51:16 86° NNE 22:53:33 26° ESE
Cosmos 1271 Rocket 4.5 22:49:29 17° WSW 22:51:38 27° WNW 22:55:02 10° N
STARLINK-60 3.5 22:52:34 10° W 22:55:42 57° NNW 22:58:52 10° ENE
STARLINK-1206 3.5 22:52:05 10° WNW 22:56:15 90° SSW 22:58:21 28° ESE
COSMOS 2455 2.8 22:52:50 24° SW 22:56:40 88° WNW 23:02:45 10° NE
Cosmos 2219 4.0 22:52:34 10° NNW 22:58:03 46° NE 23:02:17 16° ESE
USA 215 3.2 22:52:57 17° SE 22:58:13 79° SW 23:04:49 10° WNW
STARLINK-1350 4.5 23:01:49 29° ESE 23:01:49 29° ESE 23:04:19 10° ENE
STARLINK-1205 3.5 22:57:04 10° WNW 23:01:13 85° SSW 23:03:07 31° ESE
Cosmos 1707 4.5 22:59:44 18° WSW 23:01:39 26° WNW 23:04:57 10° NNW
Cosmos 2297 Rocket 3.2 22:56:55 10° NNW 23:02:18 42° NE 23:07:00 13° ESE
Helios 1A 2.9 23:01:35 45° SSE 23:02:51 86° ENE 23:07:04 10° NNW
STARLINK-1237 4.5 22:59:16 10° WNW 23:03:20 51° N 23:07:23 10° E
Lacrosse 4 Rocket 4.0 23:02:35 10° N 23:05:46 19° NE 23:08:54 10° E
STARLINK-1218 3.5 23:02:04 10° WNW 23:06:12 81° SSW 23:07:55 34° SE
Cosmos 1726 3.5 23:03:20 10° NNW 23:06:34 28° W 23:07:20 26° WSW
STARLINK-1368 4.2 23:08:27 35° ESE 23:08:27 35° ESE 23:11:16 10° ENE
Cosmos 1174 4.0 23:06:36 35° WSW 23:07:45 55° NW 23:11:34 10° NNE
STARLINK-1202 4.4 23:04:15 10° WNW 23:08:20 52° NNE 23:12:23 10° E
ALOS 2 3.1 23:07:47 36° SW 23:09:03 47° W 23:13:19 10° NNW
Timation 2 Rocket 3.9 23:03:26 10° NNW 23:09:47 82° WSW 23:12:54 31° SSE
Cosmos 2058 Rocket 3.2 23:05:58 10° N 23:10:25 66° ENE 23:11:58 38° SSE
COSMOS 2487 3.8 23:07:33 10° NW 23:10:28 26° WSW 23:10:32 26° WSW
STARLINK-1254 3.5 23:07:02 10° WNW 23:11:11 76° SSW 23:12:41 38° SE
STARLINK-1369 4.1 23:11:47 38° ESE 23:11:47 38° ESE 23:14:46 10° ENE
CENTAUR R/B 4.0 23:07:23 10° NW 23:14:28 33° WSW 23:18:17 24° SSW
STARLINK-1372 3.9 23:15:08 41° ESE 23:15:08 41° ESE 23:18:17 10° ENE
STARLINK-1231 3.5 23:12:00 10° WNW 23:16:08 72° SSW 23:17:27 41° SE
Meteor 2-5 Rocket 3.6 23:14:12 35° S 23:16:38 82° E 23:22:18 10° NNE
ATLAS 3B R/B 3.0 23:11:31 10° NW 23:18:03 51° WSW 23:21:09 31° S
STARLINK-1378 3.8 23:18:28 44° SE 23:18:28 44° SE 23:21:47 10° ENE
STARLINK-1246 4.3 23:14:15 10° WNW 23:18:20 56° NNE 23:22:25 10° E
SL-14 R/B 3.5 23:19:11 46° SE 23:19:56 56° E 23:23:44 10° NNE
SeaSat 1 3.5 23:15:46 10° NNE 23:20:24 42° NW 23:24:20 14° WSW
Cosmos 1606 Rocket 3.9 23:16:11 10° NNW 23:20:25 52° W 23:21:36 39° SW
FALCON 9 DEB 3.0 23:20:07 59° WSW 23:20:42 88° SSE 23:24:09 10° ENE
STARLINK-1232 3.5 23:17:00 10° WNW 23:21:08 67° SSW 23:22:15 45° SE
STARLINK-1379 3.7 23:21:51 48° SE 23:21:51 48° SE 23:25:19 10° ENE
STARLINK-1329 3.6 23:23:14 49° SE 23:23:14 49° SE 23:26:47 10° ENE
STARLINK-1224 4.2 23:19:13 10° WNW 23:23:19 57° NNE 23:27:25 10° E
Meteor 2-21 4.4 23:20:59 33° S 23:23:59 81° E 23:30:13 10° NNE
STARLINK-29 3.4 23:24:02 27° W 23:25:36 60° NNW 23:28:46 10° ENE
STARLINK-1208 3.5 23:21:58 10° WNW 23:26:04 63° SSW 23:27:00 47° SSE
SL-16 R/B 4.3 23:21:29 10° ESE 23:26:23 26° NE 23:31:19 10° N
STARLINK-1362 3.5 23:26:40 52° SE 23:26:40 52° SE 23:30:23 10° ENE
ATLAS CENTAUR R/B 1.8 23:26:09 10° NW 23:28:20 53° NE 23:32:23 10° ESE
STARLINK-1225 4.2 23:24:13 10° WNW 23:28:20 59° NNE 23:32:26 10° E
STARLINK-1373 3.4 23:30:05 55° SSE 23:30:13 55° SSE 23:33:59 10° ENE
NOSS 3-4 (A) 4.2 23:24:45 10° WSW 23:30:36 51° NW 23:36:57 10° NE
NOSS 3-4 (C) 4.2 23:24:50 10° WSW 23:30:42 52° NW 23:37:03 10° NE
STARLINK-1271 3.6 23:26:59 10° WNW 23:31:05 59° SSW 23:31:49 49° SSE
RESURS DK-1 2.4 23:29:48 40° SW 23:31:13 73° WNW 23:35:23 10° NNE
STARLINK-1365 3.4 23:31:12 56° SSE 23:31:28 58° SSE 23:35:14 10° ENE
STARLINK-1230 4.1 23:29:12 10° WNW 23:33:19 62° NNE 23:37:25 10° E
STARLINK-1390 3.4 23:33:34 57° S 23:33:49 58° SSE 23:37:36 10° ENE
Cosmos 1697 Rocket 4.3 23:32:47 17° SE 23:35:03 22° E 23:39:15 10° NE
Cosmos 2084 3.4 23:33:37 38° SW 23:35:19 90° ESE 23:39:50 10° NE
STARLINK-1154 3.7 23:31:58 10° WNW 23:36:02 55° SW 23:36:35 50° S
Cosmos 1626 2.0 23:36:01 57° SSW 23:36:43 87° W 23:40:28 10° N
BREEZE-M R/B 3.5 23:31:44 17° SW 23:36:47 52° SSE 23:40:26 10° E
STARLINK-1243 4.0 23:34:11 10° WNW 23:38:19 64° NNE 23:42:26 10° E
Okean 1-7 Rocket 3.6 23:37:39 41° SSW 23:39:10 79° W 23:43:44 10° N
ATLAS CENTAUR R/B 2.8 23:35:43 12° WSW 23:39:16 34° NW 23:43:01 10° NNE
Cosmos 2227 Rocket 2.5 23:33:40 10° NNW 23:39:20 65° ENE 23:43:29 19° SE
Cosmos 2369 Rocket 4.5 23:35:15 10° W 23:39:23 20° NW 23:43:32 10° N
STARLINK-1197 3.7 23:36:56 10° WNW 23:40:59 51° SW 23:41:21 49° SSW
CZ-4 R/B 3.8 23:37:19 10° NNE 23:42:06 71° ESE 23:43:50 38° S
STARLINK-1236 3.9 23:39:09 10° WNW 23:43:17 67° NNE 23:47:25 10° ESE
STARLINK-1198 3.8 23:41:56 10° WNW 23:45:55 47° SW 23:46:07 47° SSW
Cosmos 1602 Rocket 4.2 23:47:23 31° SE 23:48:54 45° E 23:53:01 10° NNE
Landsat 4 4.3 23:46:21 10° N 23:49:55 46° WNW 23:51:00 35° WSW
STARLINK-1199 3.9 23:46:57 10° WNW 23:50:55 44° SW 23:50:55 44° SW
Meteor 2-21 Rocket 4.5 23:50:06 31° SSW 23:53:15 81° W 23:59:29 10° N
STARLINK-1269 3.8 23:49:08 10° WNW 23:53:17 73° NNE 23:57:26 10° ESE
STARLINK-1210 4.0 23:51:57 10° WNW 23:55:41 41° SW 23:55:41 41° SW
